Home   Weather   Eidsvoll   Past weeks

Flag for Norway Past Weather in Eidsvoll, Norway — Yesterday and Last 2 Weeks

Now
39 °F

Passing clouds.


Feels Like: 37 °F
Forecast: 29 / 34 °F
Wind: 3 mph from Southwest

Location: Oslo Gardermoen Airport

Current Time: Jan 20, 2017 at 9:27:37 pm

Latest Report: Jan 20, 2017 at 8:50 pm


Visibility: N/A

Pressure: 30.24 "Hg

Humidity: 70%

Dew Point: 30 °F

Location of EidsvollLocation

Past Weather in Eidsvoll — Graph

°F

Eidsvoll Temperature Yesterday

Maximum temperature yesterday: 48 °F (at 1:20 pm)
Minimum temperature yesterday: 28 °F (at 3:20 am)
Average temperature yesterday: 40 °F

High & Low Weather Summary for the Past Weeks

 TemperatureHumidityPressure
High48 °F (Jan 19, 1:20 pm)100% (Jan 7, 6:50 pm)30.60 "Hg (Jan 7, 6:50 pm)
Low1 °F (Jan 6, 1:50 am)53% (Jan 19, 6:50 pm)28.50 "Hg (Jan 11, 4:20 pm)
Average26 °F85%29.83 "Hg
* Reported Jan 5 7:20 pm — Jan 20 7:50 pm, Eidsvoll, Weather by CustomWeather, © 2017

Note: Actual official high and low records may vary slightly from our data, if they occured in-between our weather recording intervals... More about our weather records

Advertising

Eidsvoll Weather History for the Previous 24 Hours

Scroll right to see more
 ConditionsComfort  
Time TempWeatherWind HumidityBarometerVisibility
7:50 pm
Fri, Jan 20
37 °FClear.1 mph75%30.21 "Hg10 mi
7:20 pm43 °FClear.2 mph61%30.21 "Hg10 mi
6:50 pm41 °FClear.2 mph66%30.18 "Hg10 mi
6:20 pm43 °FClear.2 mph61%30.18 "Hg10 mi
5:50 pm43 °FClear.6 mph61%30.18 "Hg10 mi
5:20 pm43 °FPassing clouds.6 mph61%30.18 "HgN/A
4:50 pm45 °FPassing clouds.6 mph57%30.18 "HgN/A
4:20 pm45 °FClear.7 mph57%30.18 "Hg10 mi
3:50 pm46 °FSunny.7 mph53%30.18 "Hg10 mi
3:20 pm45 °FPassing clouds.5 mph61%30.15 "HgN/A
2:50 pm45 °FSunny.5 mph61%30.15 "Hg10 mi
2:20 pm45 °FSunny.5 mph61%30.15 "Hg10 mi
1:50 pm45 °FSunny.6 mph61%30.15 "Hg10 mi
1:20 pm43 °FSunny.5 mph66%30.15 "Hg10 mi
12:50 pm41 °FSunny.8 mph70%30.15 "Hg10 mi
12:20 pm43 °FSunny.5 mph66%30.15 "Hg10 mi
11:50 am41 °FSunny.9 mph70%30.15 "Hg10 mi
11:20 am43 °FSunny.9 mph61%30.18 "Hg10 mi
10:50 am41 °FPassing clouds.7 mph70%30.15 "HgN/A
10:20 am41 °FSunny.8 mph66%30.15 "Hg10 mi
9:50 am41 °FSunny.8 mph66%30.15 "Hg10 mi
9:20 am39 °FSunny.6 mph75%30.15 "Hg10 mi
8:50 am41 °FClear.7 mph70%30.15 "Hg10 mi
8:20 am39 °FPassing clouds.5 mph70%30.15 "HgN/A
7:50 am41 °FPassing clouds.5 mph70%30.15 "HgN/A
7:20 am37 °FPassing clouds.5 mph75%30.15 "HgN/A
6:50 am41 °FClear.10 mph70%30.15 "Hg10 mi
6:20 am39 °FClear.10 mph75%30.15 "Hg10 mi
5:50 am39 °FClear.7 mph75%30.15 "Hg10 mi
5:20 am39 °FClear.10 mph75%30.15 "Hg10 mi
4:50 am39 °FClear.14 mph75%30.15 "Hg10 mi
4:20 am39 °FClear.6 mph75%30.15 "Hg10 mi
3:50 am39 °FClear.10 mph70%30.15 "Hg10 mi
3:20 am39 °FPassing clouds.7 mph75%30.15 "HgN/A
2:50 am43 °FPassing clouds.7 mph66%30.15 "HgN/A
2:20 am41 °FClear.7 mph70%30.15 "Hg10 mi
1:50 am37 °FPassing clouds.3 mph81%30.18 "HgN/A
1:20 am37 °FClear.3 mph75%30.18 "Hg10 mi
12:50 am37 °FClear.2 mph75%30.18 "Hg10 mi
12:20 am39 °FPassing clouds.5 mph70%30.18 "HgN/A
11:50 pm
Thu, Jan 19
45 °FPassing clouds.5 mph57%30.18 "HgN/A
11:20 pm45 °FPassing clouds.5 mph57%30.18 "HgN/A
10:50 pm45 °FClear.6 mph61%30.18 "Hg10 mi
10:20 pm45 °FClear.5 mph57%30.18 "Hg10 mi
9:50 pm45 °FClear.3 mph57%30.18 "Hg10 mi
9:20 pm45 °FPassing clouds.6 mph57%30.18 "HgN/A
Weather by CustomWeather, © 2017

See weather overviewHow to use our weather pages